Regional Weather Roundup
Issued by NWS

Home | Current Version | Previous Version | Graphics & Text | Print | Product List | Glossary On
Versions: 1 2 3 4 5 6 7 8 9 10 11 12 13 14 15 16 17 18 19 20 21 22 23 24 25 26 27 28 29 30 31 32 33 34 35 36 37 38 39 40 41 42 43 44 45 46 47 48 49 50
000
ASUS43 KMKX 240121
RWRWI

WISCONSIN REGIONAL WEATHER ROUNDUP
NATIONAL WEATHER SERVICE MILWAUKEE/SULLIVAN WI
800 PM CDT SAT MAY 23 2015

NOTE: "FAIR" INDICATES FEW OR NO CLOUDS BELOW 12,000 FEET WITH NO
SIGNIFICANT WEATHER AND/OR OBSTRUCTIONS TO VISIBILITY.

WIZ001-002-006>008-014>016-023>028-240200-
NORTHWEST WISCONSIN

CITY           SKY/WX    TMP DP  RH WIND       PRES   REMARKS
SUPERIOR ARPT  PTCLDY    68  44  40 SW9       30.14S
ASHLAND        MOCLDY    68  42  38 SW9       30.15R
HAYWARD        CLEAR     67  43  41 CALM      30.18S
SIREN          CLOUDY    66  43  42 CALM      30.16F
CUMBERLAND     CLOUDY    63  46  55 NE3       30.17F
RICE LAKE      CLOUDY    64  49  58 CALM      30.18F
CHETEK         CLOUDY    63  50  61 CALM      30.17F
LADYSMITH      CLOUDY    66  46  48 CALM      30.19F
EAU CLAIRE     CLOUDY    69  47  45 NE3       30.14F
MENOMONIE      CLOUDY    69  47  45 NE3       30.13F
NEW RICHMOND   CLOUDY    62  50  65 NE9       30.16F
OSCEOLA        CLOUDY    63  53  69 CALM      30.18F
$$

WIZ003>005-009-010-017-018-240200-
NORTH CENTRAL WISCONSIN

CITY           SKY/WX    TMP DP  RH WIND       PRES   REMARKS
MANITOWISH WTR MOCLDY    66  39  36 W7        30.18S
ARBOR VITAE    MOCLDY    67  36  32 W5        30.19S
WOODRUFF       MOCLDY    67  36  32 W5        30.19S
RHINELANDER    CLOUDY    67  38  34 W7        30.19R
EAGLE RIVER    PTCLDY    68  33  27 W10G20    30.18R
LAND O LAKES   PTCLDY    70  36  28 W8        30.18R
PHILLIPS       MOCLDY    65  40  38 CALM      30.18S
TOMAHAWK       CLOUDY    64  40  41 CALM      30.19S HAZE
MEDFORD        CLOUDY    66  44  45 CALM      30.18S
MERRILL        MOCLDY    67  46  45 W3        30.19R
$$

WIZ029-030-035-036-043>047-240200-
CENTRAL WISCONSIN

CITY           SKY/WX    TMP DP  RH WIND       PRES   REMARKS
WAUSAU         MOCLDY    70  40  33 NW3       30.16S
MOSINEE        PTCLDY    68  43  40 CALM      30.18S
MARSHFIELD     MOCLDY    70  42  36 CALM      30.17S
STEVENS POINT  MOCLDY    69  43  39 CALM      30.17S
WAUPACA        PTCLDY    71  42  35 CALM      30.16S
WAUTOMA        MOCLDY    72  43  35 CALM      30.16F HAZE
WISC RAPIDS    MOCLDY    72  40  31 CALM      30.17S
CAMP DOUGLAS   CLOUDY    69  54  59 MISG      30.14F
$$

WIZ011>013-019>022-031-037>040-048>050-240200-
NORTHEAST WISCONSIN

CITY           SKY/WX    TMP DP  RH WIND       PRES   REMARKS
ANTIGO         MOCLDY    66  45  45 W3        30.19R
SHAWANO        PTCLDY    74  38  27 CALM      30.16S
OCONTO         PTCLDY    67  47  48 SE8       30.15S
STURGEON BAY   PTCLDY    64  37  36 S12       30.20S
GREEN BAY      PTCLDY    74  40  29 S7        30.17R
MANITOWOC      CLEAR     63  41  44 S9        30.20S
APPLETON       MOCLDY    72  43  35 VRB3      30.17S
CLINTONVILLE   PTCLDY    72  37  28 CALM      30.16R
OSHKOSH        CLOUDY    73  42  32 CALM      30.16S
$$

WIZ032>034-041-042-053>061-240200-
SOUTHWEST WISCONSIN

CITY           SKY/WX    TMP DP  RH WIND       PRES   REMARKS
LA CROSSE      MOCLDY    74  46  36 SE6       30.12F
SPARTA         CLOUDY    72  45  37 CALM      30.15S
VIROQUA        MOCLDY    70  44  38 S6        30.16S
BOSCOBEL       PTCLDY    75  44  33 CALM      30.14F
PRAIRIE DU CHI CLEAR     74  40  29 CALM      30.13F
PLATTEVILLE    PTCLDY    73  44  34 S6        30.16S
$$

WIZ056-057-062-063-064-067-068-240200-
SOUTH CENTRAL WISCONSIN

CITY           SKY/WX    TMP DP  RH WIND       PRES   REMARKS
REEDSBURG      PTCLDY    71  45  38 CALM      30.15S
BARABOO/DELLS  PTCLDY    70  38  31 S3        30.16S
LONE ROCK      MOCLDY    72  45  37 S3        30.15F
MINERAL POINT  MOCLDY    73  36  25 CALM      30.17S
MADISON        CLOUDY    73  45  36 CALM      30.16F
MIDDLETON      CLOUDY    75  31  19 CALM      30.17S
WATERTOWN      PTCLDY    71  47  41 CALM      30.16F
MONROE         CLOUDY    72  43  35 CALM      30.17S
JANESVILLE     MOCLDY    75  37  25 CALM      30.16F
$$

WIZ051-052-058>065-066-070>072-240200-
SOUTHEAST WISCONSIN

CITY           SKY/WX    TMP DP  RH WIND       PRES   REMARKS
MILWAUKEE      MOCLDY    62  39  42 SE6       30.20R
WAUKESHA       MOCLDY    68  43  40 SE9       30.20R
MILWAUKEE/TIMM CLEAR     72  36  26 SE12      30.20S
RACINE         PTCLDY    62  39  42 SE5       30.21S
BURLINGTON     MOCLDY    67  44  43 SE8       30.18S
KENOSHA        PTCLDY    63  43  48 SE5       30.20R
FOND DU LAC    PTCLDY    69  41  36 SE13      30.17S
SHEBOYGAN      PTCLDY    63  38  39 S7        30.20S
WEST BEND      CLEAR     64  39  39 E3        30.20S
JUNEAU         PTCLDY    72  41  32 SW5       30.18F
$$

LSZ147-162-240200-
LAKE SUPERIOR

STATION/POSITION TIME  TEMP    WIND        PRES    WAVE
                       AIR SEA DIR/SP/G            HT/PER
                 (UTC) (F)     (DEG/KT/KT) (MB)    (FT/S)
W MID LAKE BUOY  0050   50 37  230/  8/  8   N/A     1
DEVILS ISLAND    0100          240/ 18/ 20   N/A
PORT WING        0000   73     220/ 13/ 20   N/A
SAXON HARBOR     0000   76     240/ 12/ 17   N/A
$$

LMZ867-665-643>646-240200-
LAKE MICHIGAN

STATION/POSITION TIME  TEMP    WIND        PRES    WAVE
                       AIR SEA DIR/SP/G            HT/PER
                 (UTC) (F)     (DEG/KT/KT) (MB)    (FT/S)
CHAMBERS ISLAND  0000   68     150/  6/ 11   N/A
N MID LAKE BUOY  0050   42 36  200/ 12/ 14   N/A     2/ 4
NORTHPORT PIER   0100   63     190/  8/ 18   N/A
SISTER BAY       0017   66     200/ 18/ 22   N/A
KEWAUNEE LAKESHO 0000   51     170/ 10/ 12   N/A
SHEBOYGAN LAKESH 0100   59     180/ 10/ 11   N/A
PORT WASHINGTON  0040   57     200/  3/  4   N/A
ATWATER BUOY     0100   52 46  170/  6/  8   N/A
MILWAUKEE LAKESH 0100   56     130/  4/  5   N/A
S MID LAKE BUOY  0050   47 38  100/ 10/ 10   N/A     0
KENOSHA   LAKESH 0100   55     180/  8/  9   N/A
$$

TC  - TEMPERATURE IN CELSIUS
VSB - VISIBILITY IN STATUTE MILES
WCI - WIND CHILL INDEX
HX  - HEAT INDEX




USA.gov is the U.S. government's official web portal to all federal, state and local government web resources and services.